Date,TemperatureHighF,TemperatureAvgF,TemperatureLowF,DewpointHighF,DewpointAvgF,DewpointLowF,HumidityHigh,HumidityAvg,HumidityLow,PressureMaxIn,PressureMinIn,WindSpeedMaxMPH,WindSpeedAvgMPH,GustSpeedMaxMPH,PrecipitationSumIn
2013-6-1,78,69,63,70,66,62,99,89,64,29.81,29.58,11,1,11,0.98
2013-6-2,72,66,56,67,61,51,99,83,65,29.84,29.58,10,1,10,0.00
2013-6-3,70,59,50,51,45,38,84,63,31,29.97,29.84,4,1,6,0.00
2013-6-4,72,60,46,53,47,44,92,65,39,30.07,29.97,7,0,7,0.00
2013-6-5,76,63,51,55,50,46,92,65,42,30.03,29.83,10,1,10,0.00
2013-6-6,69,62,58,58,53,48,85,74,65,29.83,29.70,12,1,12,0.00
2013-6-7,62,58,53,55,53,50,94,84,75,29.78,29.72,8,0,8,0.00
2013-6-8,78,64,52,57,54,51,97,74,43,29.94,29.78,5,0,5,0.00
2013-6-9,84,71,60,66,60,54,91,68,42,29.96,29.79,5,0,5,0.02
2013-6-10,78,69,66,69,66,64,98,91,68,29.79,29.59,7,0,8,0.26
2013-6-11,86,74,67,68,65,63,94,76,51,29.78,29.64,8,1,8,0.00
2013-6-12,85,74,66,77,67,63,93,80,63,29.78,29.44,6,0,6,0.03
2013-6-13,80,70,64,68,61,55,98,75,43,29.77,29.34,17,1,17,0.60
2013-6-14,78,68,60,61,58,56,93,74,49,29.93,29.77,6,0,8,0.00
2013-6-15,81,67,56,66,60,54,95,79,46,29.98,29.81,6,0,6,0.01
2013-6-16,84,74,66,70,67,63,97,80,59,29.81,29.70,11,1,11,0.31
2013-6-17,87,75,65,72,66,59,97,75,41,29.81,29.72,8,0,8,0.00
2013-6-18,74,68,60,65,61,52,94,79,63,29.92,29.73,11,1,11,0.00
2013-6-19,77,64,49,58,52,45,86,66,40,30.03,29.92,7,0,7,0.00
2013-6-20,85,70,52,61,54,48,89,62,35,30.09,30.01,6,0,6,0.00
2013-6-21,89,76,64,64,60,56,82,58,34,30.08,29.93,8,0,8,0.00
2013-6-22,93,79,67,73,68,61,97,71,46,29.98,29.84,16,1,16,0.46
2013-6-23,92,78,70,73,69,65,97,75,44,29.98,29.85,12,0,12,0.01
2013-6-24,89,78,68,73,69,65,93,74,52,29.96,29.81,11,1,13,0.00
2013-6-25,91,78,68,76,70,64,93,76,54,29.86,29.67,12,1,12,0.30
2013-6-26,87,73,67,74,69,65,98,88,62,29.80,29.60,10,0,10,0.25
2013-6-27,85,74,68,74,70,66,99,88,63,29.64,29.50,9,0,13,0.09
2013-6-28,84,70,64,69,66,60,99,86,52,29.50,29.39,17,0,17,0.06
2013-6-29,76,67,60,67,64,59,99,91,70,29.58,29.42,5,0,5,0.06
2013-6-30,74,68,64,64,62,60,93,82,67,29.78,29.58,10,1,10,0.03